Find Starlink 33616

NORAD ID: 63385 Int'l Des: 2025-063 Owner: SPXS Country: US Constellation: starlink operational
LEOCIRCULAR

現在のビュー

3D地球を読み込み中...

Starlink 33616について

説明を読み込み中...

次回通過

Passes for default location (London). Set your location on the main map for personalized predictions.

高度履歴

Loading altitude history...

軌道要素

1 63385U 25063Y 26150.94784613 .00017963 00000-0 61724-3 0 9996
2 63385 53.1611 41.0315 0001361 68.2568 291.8578 15.30194925 67152
Epoch: May 30, 2026 • Age: 24 hours

現在のステータス

高度 477.1 km
速度 7.63 km/s
衛星直下点 36.29°N, 156.84°W
打ち上げ日 Mar 26, 2025
運用期間 1.1 years
タイプ internet

技術仕様

分類 Payload
質量 575.00 kg
乾燥質量 530.00 kg
総質量 575.00 kg
長さ 0.30 m
直径 4.10 m
スパン 29.00 m
形状 Box + pan
製造者 SPXS
バスタイプ Starlink V2MO
フェーズステータス In Orbit
所有者/国 SPXS/US

Most Searched